Location: Newark
(27.9675°N, 86.8869°E)
Time: 08:38:25
(UTC+00:00)

SR - Pass Details

Date: 29 October 2019
Orbit: 574 x 882 km, 66.7° (Epoch: 11 November)

Event Time Altitude Azimuth Distance (km) Brightness Sun altitude
Rises 23:00:36 0° 342° (NNW) 3,480 ? -18.4°
Reaches altitude 10° 23:03:12 10° 347° (NNW) 2,540 ? -17.9°
Maximum altitude 23:08:58 52° 63° (ENE) 1,070 ? -16.6°
Drops below altitude 10° 23:14:31 10° 139° (SE) 2,443 ? -15.4°
Sets 23:16:57 0° 144° (SE) 3,337 ? -14.9°
